Change the Weather History Date:

Thursday, November 7, 2013

  Actual Average Record
Temperature  
Mean Temperature 60 °F -  
Max Temperature 73 °F 68 °F 86 °F (1955)
Min Temperature 46 °F 45 °F 33 °F (1957)
Degree Days  
Heating Degree Days 6    
Growing Degree Days 10 (Base 50)    
Moisture  
Dew Point 37 °F    
Average Humidity 48    
Maximum Humidity 71    
Minimum Humidity 24    
Precipitation  
Precipitation 0.00 in - - ()
Sea Level Pressure  
Sea Level Pressure 30.12 in    
Wind  
Wind Speed 1 mph (SSW)    
Max Wind Speed 8 mph    
Max Gust Speed -    
Visibility 10 miles    
Events      
Averages and records for this station are not official NWS values.
T = Trace of Precipitation, MM = Missing Value Source: NWS Daily Summary

Daily Weather History Graph

Daily Weather History Graph

Search for Another Location

Airport or City:

Trip Planner

Search our weather history database for the weather conditions in past years. The results will help you decide how hot, cold, wet, or windy it might be!

Date:

Astronomy

Nov. 07, 2013 Rise Set
Actual Time 6:40 AM PST 5:01 PM PST
Civil Twilight 6:13 AM PST 5:29 PM PST
Nautical Twilight 5:41 AM PST 6:00 PM PST
Astronomical Twilight 5:10 AM PST 6:31 PM PST
Moon 10:53 AM PST (11/7) 9:19 PM PST (11/7)
Length of Visible Light 11h 16m
Length of Day
10h 20m
Waxing Crescent, 24% of the Moon is Illuminated
Nov 7
Waxing Crescent
Nov 9
First Quarter
Nov 17
Full
Nov 25
Last Quarter
Dec 2
New

Hourly Weather History & Observations

Time (PST) Temp. Dew Point Humidity Pressure Visibility Wind Dir Wind Speed Gust Speed Precip Events Conditions
12:53 AM 51.1 °F 37.0 °F 59% 30.18 in 6.0 mi Calm Calm - N/A   Haze
1:53 AM 51.1 °F 37.9 °F 61% 30.18 in 10.0 mi Calm Calm - N/A   Clear
2:53 AM 48.9 °F 37.0 °F 64% 30.16 in 10.0 mi Calm Calm - N/A   Clear
3:53 AM 50.0 °F 36.0 °F 59% 30.16 in 10.0 mi Calm Calm - N/A   Clear
4:53 AM 50.0 °F 36.0 °F 59% 30.16 in 8.0 mi Calm Calm - N/A   Clear
5:53 AM 48.0 °F 37.0 °F 66% 30.16 in 3.0 mi Calm Calm - N/A   Haze
6:53 AM 46.9 °F 36.0 °F 66% 30.16 in 10.0 mi Calm Calm - N/A   Clear
7:53 AM 52.0 °F 37.0 °F 57% 30.19 in 10.0 mi Calm Calm - N/A   Clear
8:53 AM 59.0 °F 36.0 °F 42% 30.19 in 10.0 mi Calm Calm - N/A   Clear
9:53 AM 61.0 °F 37.9 °F 42% 30.19 in 10.0 mi Calm Calm - N/A   Clear
10:53 AM 63.0 °F 37.9 °F 40% 30.17 in 10.0 mi Calm Calm - N/A   Clear
11:53 AM 66.0 °F 39.0 °F 37% 30.15 in 10.0 mi South 3.5 mph - N/A   Clear
12:53 PM 71.1 °F 37.9 °F 30% 30.12 in 10.0 mi South 6.9 mph - N/A   Clear
1:53 PM 73.9 °F 36.0 °F 25% 30.09 in 10.0 mi Variable 6.9 mph - N/A   Clear
2:53 PM 73.9 °F 37.0 °F 26% 30.07 in 10.0 mi SSW 8.1 mph - N/A   Clear
3:53 PM 73.9 °F 35.1 °F 24% 30.06 in 10.0 mi South 8.1 mph - N/A   Clear
4:53 PM 71.1 °F 36.0 °F 28% 30.06 in 10.0 mi SSW 5.8 mph - N/A   Clear
5:53 PM 66.0 °F 37.0 °F 34% 30.06 in 10.0 mi SE 5.8 mph - N/A   Clear
6:53 PM 61.0 °F 36.0 °F 39% 30.06 in 10.0 mi Calm Calm - N/A   Clear
7:53 PM 57.0 °F 37.0 °F 47% 30.06 in 10.0 mi Calm Calm - N/A   Clear
8:53 PM 55.0 °F 37.9 °F 53% 30.06 in 10.0 mi Calm Calm - N/A   Clear
9:53 PM 55.0 °F 42.1 °F 62% 30.06 in 10.0 mi Calm Calm - N/A   Clear
10:53 PM 50.0 °F 39.0 °F 66% 30.07 in 10.0 mi Calm Calm - N/A   Clear
11:53 PM 46.9 °F 37.9 °F 71% 30.07 in 10.0 mi West 3.5 mph - N/A   Clear